User: anonymous   Login
Location: Unspecified
(0.0000°N, 0.0000°E)
Time: 06:42:27
(UTC+00:00)
Language:

A-11 Canister half - Orbit

View from above orbital plane
View from above orbital plane
View from above satellite
View from above satellite

Ground track
Ground track

The orbit data is extracted from the following two-line orbital elements,

1 00051U 60009C   17018.05847436 -.00000091  00000-0 -44546-4 0  9994
2 00051  47.2106 243.4331 0108207  56.7671 304.3434 12.18270156512134
Epoch (UTC): 18 January 2017 01:24:12
Eccentricity: 0.0108207
inclination: 47.2106°
perigee height: 1514 km
apogee height: 1686 km
right ascension of ascending node: 243.4331°
argument of perigee: 56.7671°
revolutions per day: 12.18270156
mean anomaly at epoch: 304.3434°
orbit number at epoch: 51213

The dashed part of the orbit path shows where the satellite is in the earth's shadow,  

DLR